Regional Weather Roundup
Issued by NWS

Home | Current Version | Previous Version | Text Only | Print | Product List | Glossary Off
Versions: 1 2 3 4 5 6 7 8 9 10 11 12 13 14 15 16 17 18 19 20 21 22 23 24 25 26 27 28 29 30 31 32 33 34 35 36 37 38 39 40 41 42 43 44 45 46 47 48 49 50

000
ASUS45 KABQ 060001
RWRNM
NEW MEXICO REGIONAL WEATHER ROUNDUP
NATIONAL WEATHER SERVICE ALBUQUERQUE NM
600 PM MDT THU MAY 05 2016

NOTE: "FAIR" MEANS FEW OR NO CLOUDS BELOW 12,000 FEET AGL WITH NO
       SIGNIFICANT WEATHER OR OBSTRUCTIONS TO VISION.

      THIS PRODUCT IS RELEASED AS TWO VERSIONS.  ONE VERSION NEAR
      THE TOP OF THE HOUR CONTAINING PRELIMINARY DATA FROM ALBUQUERQUE
      AND OTHER STATIONS.  A FINAL VERSION WITH ADDITIONAL DATA IS
      ISSUED ABOUT 10 MINUTES AFTER THE HOUR.

NMZ501-503-504-510>518-060100-
NORTHWEST PLATEAU/NORTHCENTRAL MOUNTAINS

CITY           SKY/WX    TMP DP  RH WIND       PRES   REMARKS
FARMINGTON     FAIR      80  20  10 SE17G25   29.93F
6HR MIN TEMP:  75; 6HR MAX TEMP:  85;

SANTA FE       FAIR      76  22  13 S14G22    30.07F
6HR MIN TEMP:  73; 6HR MAX TEMP:  80;

TAOS           FAIR      72  23  16 CALM      30.13F

$$
NMZ402-403-502-505>509-060100-
WESTCENTRAL MOUNTAINS/SOUTHWEST MOUNTAINS

CITY           SKY/WX    TMP DP  RH WIND       PRES   REMARKS
GALLUP         FAIR      73  30  20 SE13      30.00F
6HR MIN TEMP:  73; 6HR MAX TEMP:  81;

GRANTS         FAIR      74  26  16 SE20G28   30.06S
SILVER CITY      N/A     81  28  15 SE20G26   30.00F

$$
NMZ407-409-411-412-060100-
SOUTHERN DESERTS

CITY           SKY/WX    TMP DP  RH WIND       PRES   REMARKS
LORDSBURG      FAIR      88  30  12 S13G20    29.88F
DEMING         FAIR      89  32  13 SE16      29.91F
6HR MIN TEMP:  82; 6HR MAX TEMP:  90;

HOLLOMAN AFB   FAIR      87  25  10 SE17      29.93F
ALAMOGORDO     FAIR      86  27  11 SE17G26   29.96F
T OR C         FAIR      84  29  13 S12G24    29.96F
6HR MIN TEMP:  76; 6HR MAX TEMP:  87;


$$
NMZ519>523-060100-
CENTRAL VALLEYS/CENTRAL HIGHLANDS

CITY           SKY/WX    TMP DP  RH WIND       PRES   REMARKS
ALBUQUERQUE    FAIR      81  24  12 S12       30.00F
6HR MIN TEMP:  74; 6HR MAX TEMP:  84;

DOUBLE EAGLE   MOSUNNY   81  27  13 SE15      30.05F
CLINES CORNERS FAIR      71  20  14 S12       30.13F
6HR MIN TEMP:  70; 6HR MAX TEMP:  77;

BELEN          FAIR      83  22  10 SE12G23   30.00F
6HR MIN TEMP:  77; 6HR MAX TEMP:  85;

SOCORRO        NOT AVBL

$$
NMZ524>526-539-540-060100-
SOUTHCENTRAL MOUNTAINS

CITY           SKY/WX    TMP DP  RH WIND       PRES   REMARKS
RUIDOSO        NOT AVBL

$$
NMZ527>531-060100-
NORTHEAST HIGHLANDS/NORTHEAST PLAINS

CITY           SKY/WX    TMP DP  RH WIND       PRES   REMARKS
LAS VEGAS      FAIR      73  21  14 S18G25    30.13F
6HR MIN TEMP:  72; 6HR MAX TEMP:  76;

RATON          FAIR      76  26  15 S17       30.07F
6HR MIN TEMP:  73; 6HR MAX TEMP:  79;

CLAYTON        FAIR      80  27  14 S14       30.04F
6HR MIN TEMP:  80; 6HR MAX TEMP:  83;


$$
NMZ532>537-060100-
EASTCENTRAL PLAINS

CITY           SKY/WX    TMP DP  RH WIND       PRES   REMARKS
TUCUMCARI      FAIR      86  13   6 S12       29.99F
6HR MIN TEMP:  84; 6HR MAX TEMP:  88;

CANNON AFB     NOT AVBL
CLOVIS AIRPORT FAIR      82  25  12 S12G20    30.05F

$$
NMZ028-029-538-060100-
SOUTHEAST PLAINS

CITY           SKY/WX    TMP DP  RH WIND       PRES   REMARKS
ROSWELL        FAIR      86  19   8 SE17      29.99F
6HR MIN TEMP:  83; 6HR MAX TEMP:  88;

ARTESIA        FAIR      86  23  10 SE16G23   29.99S
CARLSBAD       FAIR      85  22  10 SE13      29.98F
6HR MIN TEMP:  83; 6HR MAX TEMP:  88;

HOBBS          SUNNY     82  21  10 SE12G18   30.05F


$$



USA.gov is the U.S. government's official web portal to all federal, state and local government web resources and services.